EW1898 Weather Reports


time (UTC)temp
F
wind
direction
speed
knots
gust
knots
rain 1hr
in
rain 24hr
in
rain mn
in
humidity
%
barometer
mb
20260905224547 64 130 0.0 0.9 0.00 0.00 0.00 85 1011.8
20260905223052 64 124 0.0 0.9 0.00 0.00 0.00 85 1011.6
20260905221544 64 124 0.0 1.7 0.00 0.00 0.00 85 1011.6
20260905220043 65 100 0.0 0.0 0.00 0.00 0.00 85 1011.6
20260905214544 64 99 0.0 0.0 0.00 0.00 0.00 86 1011.2
20260905213038 64 99 0.0 2.6 0.00 0.00 0.00 85 1011.0
20260905211537 65 103 0.0 3.5 0.00 0.00 0.00 85 1010.9
20260905210045 65 138 0.0 3.5 0.00 0.00 0.00 85 1010.8
20260905204535 67 35 0.0 7.8 0.00 0.00 0.00 81 1010.8
20260905203033 70 226 0.9 4.3 0.00 0.00 0.00 77 1010.5
20260905201532 69 162 0.0 3.5 0.00 0.00 0.00 77 1010.2
20260905200044 70 163 0.0 1.7 0.00 0.00 0.00 76 1010.1
20260905194529 71 137 0.0 5.2 0.00 0.00 0.00 75 1009.9
20260905193035 69 160 0.0 1.7 0.00 0.00 0.00 78 1009.9
20260905191528 69 159 0.0 5.2 0.00 0.00 0.00 78 1010.0
20260905190027 69 112 0.0 0.0 0.00 0.00 0.00 79 1010.1
20260905184534 69 119 0.0 2.6 0.00 0.00 0.00 80 1010.2
20260905183036 69 114 0.0 2.6 0.00 0.00 0.00 78 1010.0
20260905181526 70 73 0.0 4.3 0.00 0.00 0.00 79 1010.1
20260905180024 69 199 0.9 4.3 0.00 0.00 0.00 78 1010.1
20260905174525 71 151 0.0 3.5 0.00 0.00 0.00 74 1010.0
20260905173036 70 154 0.0 1.7 0.00 0.00 0.00 72 1009.9
20260905171522 71 142 1.7 4.3 0.00 0.00 0.00 72 1009.7
20260905170022 70 154 0.9 3.5 0.00 0.00 0.00 72 1009.8
20260905164522 70 293 0.0 0.9 0.00 0.00 0.00 75 1009.9
20260905163021 70 269 0.0 3.5 0.00 0.00 0.00 74 1009.8
20260905161520 71 156 0.9 7.8 0.00 0.00 0.00 72 1009.8
20260905160020 71 150 0.0 5.2 0.00 0.00 0.00 73 1009.9
20260905154515 70 212 0.0 3.5 0.00 0.00 0.00 78 1009.9
20260905153024 69 148 0.9 5.2 0.00 0.00 0.00 78 1010.0
20260905151512 69 295 0.0 2.6 0.00 0.00 0.00 79 1010.0
20260905150017 69 298 0.0 3.5 0.00 0.00 0.00 80 1009.9
20260905144513 68 295 0.0 1.7 0.00 0.00 0.00 82 1010.0
20260905143006 67 264 0.0 1.7 0.00 0.00 0.00 84 1010.1
20260905141504 67 295 0.0 0.9 0.00 0.00 0.00 85 1010.1
20260905140001 66 295 0.0 0.9 0.00 0.00 0.00 86 1010.1
20260905134559 66 295 0.0 0.9 0.00 0.00 0.00 87 1010.0
20260905133055 65 299 0.0 1.7 0.00 0.00 0.00 87 1009.8
20260905131602 65 295 0.0 1.7 0.00 0.00 0.00 88 1009.7
20260905130051 64 277 0.0 2.6 0.00 0.00 0.00 88 1009.5
20260905124548 64 274 0.0 2.6 0.00 0.00 0.00 88 1009.5
20260905123104 64 293 0.0 1.7 0.00 0.00 0.00 89 1009.2
20260905121544 63 286 0.0 0.9 0.00 0.00 0.00 89 1009.0
20260905120043 63 279 0.9 3.5 0.00 0.00 0.00 89 1009.0
20260905114545 63 281 0.0 2.6 0.00 0.00 0.00 90 1008.9
20260905113041 63 286 0.0 1.7 0.00 0.00 0.00 90 1008.7
20260905111541 62 298 0.0 3.5 0.00 0.00 0.00 91 1008.7
20260905110040 61 290 0.0 1.7 0.00 0.00 0.00 92 1008.6
20260905104539 61 288 0.0 0.9 0.00 0.00 0.00 92 1008.6
20260905103048 61 293 0.0 0.0 0.00 0.00 0.00 91 1008.6
20260905101539 61 293 0.0 0.0 0.00 0.00 0.00 92 1008.5
20260905100049 61 293 0.0 0.0 0.00 0.00 0.00 92 1008.4
20260905094536 61 293 0.0 0.0 0.00 0.00 0.00 92 1008.2
20260905093035 61 293 0.0 0.0 0.00 0.00 0.00 92 1008.2
20260905091542 60 293 0.0 0.0 0.00 0.00 0.00 93 1008.1
20260905090032 60 293 0.0 0.0 0.00 0.00 0.00 91 1008.1
20260905084534 61 293 0.0 0.0 0.00 0.00 0.00 92 1008.0
20260905083033 60 293 0.0 0.0 0.00 0.00 0.00 92 1008.0
20260905081530 60 293 0.0 0.9 0.00 0.00 0.00 93 1008.0
20260905080048 60 293 0.0 0.9 0.00 0.00 0.00 92 1008.0
20260905074530 61 293 0.0 1.7 0.00 0.00 0.00 91 1008.0
20260905073027 61 294 0.0 0.9 0.00 0.00 0.00 90 1008.1
20260905071527 62 294 0.0 1.7 0.00 0.00 0.00 90 1008.2
20260905070031 62 294 0.0 1.7 0.00 0.00 0.00 90 1008.2
20260905064521 61 295 0.0 1.7 0.00 0.00 0.00 90 1008.3
20260905063018 62 295 0.0 1.7 0.00 0.00 0.00 89 1008.4
20260905061518 63 295 0.0 0.9 0.00 0.00 0.00 88 1008.6
20260905060035 62 295 0.0 1.7 0.00 0.00 0.00 88 1008.8
20260905054514 63 295 0.0 2.6 0.00 0.00 0.00 87 1008.7
20260905053013 63 294 0.0 1.7 0.00 0.00 0.00 87 1008.9
20260905051515 63 294 0.0 0.0 0.00 0.00 0.00 88 1008.7
20260905050017 63 294 0.0 0.9 0.00 0.00 0.00 88 1008.9
20260905044515 63 294 0.0 0.9 0.00 0.00 0.00 88 1008.8
20260905043009 63 294 0.0 0.9 0.00 0.00 0.00 88 1008.7
20260905041507 63 294 0.0 0.0 0.00 0.00 0.00 88 1008.8
20260905040004 63 294 0.0 0.0 0.00 0.00 0.00 88 1008.8
20260905034503 64 294 0.0 0.0 0.00 0.00 0.00 85 1008.8
20260905033003 65 294 0.0 2.6 0.00 0.00 0.00 84 1008.8
20260905031503 65 291 0.0 0.9 0.00 0.00 0.00 83 1008.9
20260905030003 66 291 0.0 0.0 0.00 0.00 0.00 81 1008.9
20260905024502 67 291 0.0 0.9 0.00 0.00 0.00 79 1008.9
20260905023100 67 291 0.0 0.0 0.00 0.00 0.00 78 1009.0
20260905021602 68 291 0.0 0.9 0.00 0.00 0.00 76 1009.1
20260905020058 68 291 0.0 1.7 0.00 0.00 0.00 75 1009.2
20260905014557 68 291 0.0 0.9 0.00 0.00 0.00 74 1009.2
20260905013057 69 291 0.0 0.9 0.00 0.00 0.00 71 1009.3
20260905011615 70 291 0.0 0.9 0.00 0.00 0.00 71 1009.3
20260905010055 69 291 0.0 1.7 0.00 0.00 0.00 71 1009.3
20260905004555 70 291 0.0 0.9 0.00 0.00 0.00 70 1009.1
20260905003057 71 291 0.9 2.6 0.00 0.00 0.00 69 1009.1
20260905001606 71 291 0.0 0.0 0.00 0.00 0.00 69 1009.1
20260905000054 72 291 0.0 0.9 0.00 0.00 0.00 68 1008.9
20260904234554 73 291 0.0 0.9 0.00 0.00 0.00 65 1008.7
20260904233104 73 291 0.0 1.7 0.00 0.00 0.00 63 1008.6
20260904231552 74 281 0.9 2.6 0.00 0.00 0.00 61 1008.4
20260904230051 75 295 1.7 4.3 0.00 0.00 0.00 60 1008.3